Regional Weather Roundup
Issued by NWS Cleveland, OH

Home | Current Version | Previous Version | Graphics & Text | Print | Product List | Glossary On
Versions: 1 2 3 4 5 6 7 8 9 10 11 12 13 14 15 16 17 18 19 20 21 22 23 24 25 26 27 28 29 30 31 32 33 34 35 36 37 38 39 40 41 42 43 44 45 46 47 48 49 50
000
ASUS41 KCLE 170000
RWRCLE
OHIO REGIONAL WEATHER ROUNDUP
NATIONAL WEATHER SERVICE WILMINGTON, OH
800 PM EDT WED APR 16 2014

NOTE: "FAIR" INDICATES FEW OR NO CLOUDS BELOW 12,000 FEET WITH NO
SIGNIFICANT WEATHER AND/OR OBSTRUCTIONS TO VISIBILITY.

OHZ001>008-015>018-024>027-034-035-043-044-170100-
   NORTHWEST OHIO

CITY           SKY/WX    TMP DP  RH WIND       PRES   REMARKS
DEFIANCE       CLEAR     45  25  45 SE9       30.31F
FINDLAY        CLEAR     44  25  47 SE10      30.31F
TOLEDO EXPRESS PTCLDY    39  27  62 E12       30.34S
TOLEDO METCALF CLEAR     37  25  61 E13       30.37S
LIMA           PTCLDY    45  26  47 E10       30.29F
$$

OHZ009>014-019>023-028>033-038-089-170100-
   NORTHEAST OHIO

CITY           SKY/WX    TMP DP  RH WIND       PRES   REMARKS
CLE-HOPKINS    PTCLDY    40  27  59 N7        30.41S
CLE-LAKEFRONT  CLEAR     43  18  36 SE9       30.38S
CUY CO. ARPT   PTCLDY    41  19  42 SE12      30.40R
LORAIN-ELYRIA  CLEAR     39  27  62 E12       30.38S
ASHTABULA      CLEAR     35  19  52 NE5       30.43R
AKRON-CANTON   MOCLDY    41  13  32 SE9       30.37S
WOOSTER        NOT AVBL
MANSFIELD      PTCLDY    40  22  48 E10       30.34S
YOUNGSTOWN     MOCLDY    38  18  44 E7        30.39S
$$

OHZ042-051>053-060>062-070>072-077>081-170100-
  SOUTHWEST OHIO

CITY           SKY/WX    TMP DP  RH WIND       PRES   REMARKS
CINC-COVINGTON MOCLDY    48  20  32 SE10      30.25S
CINC-LUNKEN    PTCLDY    48  21  34 SE5       30.27F
HAMILTON       PTCLDY    49  22  34 E8        30.27F
DAYTON         NOT AVBL
WRIGHT-PAT AFB MOCLDY    46  22  38 E9        30.28F
DAYTON GENERAL MOCLDY    46  22  38 SE7       30.26F
WILMINGTON     PTCLDY    44  24  45 E7        30.27F
$$

OHZ036-037-039>041-045>050-054>059-063>069-073>076-082>088-170100-
  CENTRAL AND SOUTHEAST OHIO

CITY           SKY/WX    TMP DP  RH WIND       PRES   REMARKS
COLUMBUS       MOCLDY    47  21  35 E9        30.32F
OSU AIRPORT    MOCLDY    45  22  40 E10       30.31F
BOLTON FIELD   NOT AVBL
RICKENBACK AFB NOT AVBL
NEWARK         PTCLDY    44  20  38 E8        30.33F
MARION         PTCLDY    43  23  45 SE10      30.33S
LANCASTER      PTCLDY    43  22  43 E8        30.33S
ZANESVILLE     CLEAR     44  18  35 E7        30.34F
NEW PHILLY     CLEAR     43  16  33 E8        30.38S
$$



USA.gov is the U.S. government's official web portal to all federal, state and local government web resources and services.